indice_tiempo,agricultura_ganaderia_caza_silvicultura_est,pesca_est,explotacion_minas_canteras_est,industrias_manufactureras_est,suministro_electricidad_gas_agua_est,construccion_est,comercio_reparaciones_est,hoteles_restaurantes_est,transporte_almacen_comunicacion_est,intermediacion_financiera_est,actividades_inmobiliarias_empresariales_alquiler_est,ensenanza_est,servicios_sociales_salud_est,servicios_comunitarios_sociales_personales_est,sin_especificar_est,total_est,agricultura_ganaderia_caza_silvicultura_sin_est,pesca_sin_est,explotacion_minas_canteras_sin_est,industrias_manufactureras_sin_est,suministro_electricidad_gas_agua_sin_est,construccion_sin_est,comercio_reparaciones_sin_est,hoteles_restaurantes_sin_est,transporte_almacen_comunicacion_sin_est,intermediacion_financiera_sin_est,actividades_inmobiliarias_empresariales_alquiler_sin_est,ensenanza_sin_est,servicios_sociales_salud_sin_est,servicios_comunitarios_sociales_personales_sin_est,sin_especificar_sin_est,total_sin_est
2009-01-01,333.296,14.956,68.604,1181.853,54.39,396.483,1020.731,233.726,489.46,144.699,831.348,309.736,233.78,345.398,1.501,5659.961,331.826,15.223,68.538,1182.989,54.39,403.921,1003.756,218.286,487.714,144.639,814.751,322.844,232.438,340.573,1.501,5623.389000000001
2009-02-01,337.412,15.338,68.388,1181.14,54.459,397.861,1016.798,231.931,487.199,141.348,824.977,309.655,234.644,344.72,1.511,5647.381000000001,329.395,15.106,68.204,1178.539,54.459,402.09,1006.073,219.111,486.808,141.624,810.374,321.777,233.856,339.719,1.511,5608.646
2009-03-01,347.881,15.673,67.688,1175.755,54.46,399.927,1010.781,221.962,487.659,140.61,818.636,316.632,234.811,340.974,1.413,5634.861999999999,328.985,15.234,67.267,1169.229,54.46,398.907,1005.927,219.566,486.282,140.836,807.851,321.869,234.421,339.802,1.413,5592.048999999999
2009-04-01,334.394,15.649,67.002,1162.891,54.61,396.817,1002.293,217.445,485.921,139.697,802.733,322.686,234.638,338.438,1.345,5576.559,328.506,15.268,66.967,1160.555,54.61,396.867,1005.76,220.046,486.026,139.971,802.213,322.341,235.321,339.741,1.345,5575.537
2009-05-01,322.944,15.619,66.925,1155.834,54.702,395.602,997.827,213.292,484.758,139.431,794.4,325.398,235.012,337.729,1.332,5540.805,325.05,15.377,66.97,1157.564,54.702,395.534,1005.491,219.962,485.681,139.644,801.604,322.776,236.104,340.232,1.332,5568.023000000001
2009-06-01,324.377,15.181,66.881,1158.576,55.469,395.788,999.346,212.532,484.112,139.48,791.771,332.123,236.304,338.071,1.303,5551.313999999999,326.356,15.0,66.947,1160.354,55.469,395.792,1006.469,220.305,485.152,139.607,801.935,324.13,237.055,340.208,1.303,5576.082
2009-07-01,320.166,14.615,66.685,1156.144,55.51,393.593,997.523,212.333,484.062,139.6,804.755,325.725,237.556,337.351,1.284,5546.901999999999,327.31,14.687,66.824,1159.749,55.51,393.746,1006.241,217.325,484.727,139.412,815.904,323.038,238.131,338.974,1.284,5582.862
2009-08-01,316.18,14.771,66.436,1157.887,55.656,391.812,1000.193,212.996,483.74,139.742,788.77,328.766,238.255,338.412,1.265,5534.880999999999,328.19,14.652,66.669,1161.456,55.656,392.599,1007.952,218.075,484.986,139.5,797.618,324.899,238.645,340.035,1.265,5572.197000000001
2009-09-01,316.436,14.618,66.54,1161.607,55.822,392.716,1002.542,215.658,483.512,139.675,792.244,330.909,239.218,340.72,1.216,5553.433,327.302,14.775,66.603,1163.922,55.822,389.839,1010.045,219.967,484.32,139.405,802.795,326.434,239.317,343.2,1.216,5584.962
2009-10-01,328.659,14.419,66.671,1167.248,55.965,393.844,1007.861,218.876,485.25,139.848,799.088,331.661,239.925,343.773,1.181,5594.269,328.195,14.586,66.647,1167.592,55.965,388.236,1011.613,221.779,485.832,139.536,805.259,327.221,239.809,345.676,1.181,5599.1269999999995
2009-11-01,331.723,14.167,66.526,1168.509,56.06,394.538,1015.365,220.977,486.765,140.249,803.552,331.449,240.894,344.947,1.187,5616.907999999999,328.544,14.642,66.564,1166.803,56.06,387.437,1014.892,221.712,486.432,139.956,803.641,328.225,240.531,345.609,1.187,5602.235000000001
2009-12-01,320.827,14.258,66.566,1168.247,56.111,383.757,1027.364,227.066,488.745,139.988,821.219,330.0,241.905,350.257,1.195,5637.504999999998,324.797,14.705,66.719,1167.064,56.111,387.364,1014.452,222.778,487.267,140.24,809.63,328.927,241.229,347.013,1.195,5609.491
2010-01-01,323.659,14.349,66.851,1167.035,56.173,379.87,1031.837,238.473,489.468,140.574,826.764,315.696,243.625,350.899,1.181,5646.454,322.437,14.607,66.784,1168.484,56.173,388.205,1015.407,222.668,487.875,140.56,810.887,329.147,242.331,346.075,1.181,5612.820999999999
2010-02-01,332.515,14.766,67.305,1176.984,56.076,386.255,1032.21,236.601,490.018,140.553,831.439,316.356,243.898,352.846,1.188,5679.01,324.306,14.533,67.111,1174.43,56.076,390.705,1021.517,223.464,489.642,140.835,817.109,328.638,243.108,347.824,1.188,5640.486
2010-03-01,343.662,14.927,67.8,1184.708,56.105,392.92,1031.197,226.76,493.408,141.17,831.612,324.638,244.672,349.138,1.155,5703.871999999999,325.067,14.498,67.572,1178.146,56.105,391.15,1025.923,224.293,491.846,141.32,820.326,329.919,244.231,347.966,1.155,5659.517000000001
2010-04-01,336.315,14.826,67.937,1184.999,56.129,391.665,1027.604,222.615,493.695,141.466,821.974,331.634,244.549,347.446,1.117,5683.9710000000005,329.418,14.472,67.7,1181.813,56.129,391.811,1030.757,225.293,493.849,141.725,821.297,331.177,245.234,348.75,1.117,5680.542
2010-05-01,322.725,14.528,67.936,1183.368,56.207,391.227,1025.942,219.503,492.618,142.282,816.707,335.189,245.414,347.299,1.092,5662.037,324.615,14.287,67.973,1185.476,56.207,391.172,1033.506,226.372,493.626,142.486,823.839,332.516,246.522,349.85,1.092,5689.539
2010-06-01,321.919,14.351,68.118,1187.431,56.332,391.316,1029.806,220.138,493.997,142.975,817.338,341.689,246.33,349.023,1.097,5681.86,324.398,14.164,68.194,1189.995,56.332,391.328,1037.472,228.27,495.062,143.108,827.664,333.548,247.103,351.222,1.097,5708.956999999999
2010-07-01,316.211,15.105,68.5,1188.46,56.413,391.692,1033.052,223.563,495.992,143.745,818.391,337.623,247.298,350.941,1.112,5688.097999999999,323.798,15.175,68.648,1192.025,56.413,392.556,1041.94,228.803,496.839,143.625,829.951,334.856,247.923,352.54,1.112,5726.204
2010-08-01,313.485,15.288,69.013,1193.327,56.441,397.726,1038.405,224.76,497.71,144.251,821.447,339.136,248.31,351.934,1.099,5712.332000000002,324.886,15.188,69.252,1195.843,56.441,397.5,1045.377,230.144,498.751,143.962,829.729,335.148,248.638,353.533,1.099,5745.491000000001
2010-09-01,314.815,15.068,69.32,1194.646,56.574,404.867,1042.12,225.714,499.417,145.042,824.974,340.61,249.651,352.268,1.084,5736.169999999999,325.828,15.225,69.39,1197.478,56.574,401.861,1049.854,230.261,500.182,144.772,835.453,336.051,249.762,354.711,1.084,5768.486000000001
2010-10-01,326.395,14.305,69.624,1198.467,56.807,409.384,1049.132,228.02,500.952,145.666,830.368,341.76,250.582,352.906,1.081,5775.449000000001,326.631,14.44,69.605,1199.166,56.807,404.498,1053.607,231.054,501.636,145.415,836.712,337.237,250.509,354.786,1.081,5783.184
2010-11-01,331.905,14.232,70.303,1203.737,57.087,418.308,1058.359,230.428,503.106,146.621,841.736,340.54,251.878,354.871,1.073,5824.184,328.343,14.661,70.337,1200.901,57.087,410.304,1057.034,231.216,502.534,146.308,841.098,337.236,251.441,355.514,1.073,5805.087
2010-12-01,324.961,14.351,70.092,1208.399,57.254,413.548,1074.962,235.856,506.557,146.855,862.154,339.691,253.443,359.438,1.071,5868.632,328.266,14.794,70.244,1207.394,57.254,417.23,1062.108,231.416,505.033,147.127,850.762,338.654,252.752,356.192,1.071,5840.297
2011-01-01,329.634,14.478,70.647,1211.329,57.581,414.602,1083.236,249.815,508.965,147.371,866.052,326.133,255.213,361.499,1.115,5897.669999999999,328.04,14.743,70.585,1212.952,57.581,422.938,1066.527,233.152,507.313,147.327,850.591,340.22,253.9,356.727,1.115,5863.711
2011-02-01,342.141,15.243,71.048,1221.312,57.682,422.789,1080.84,247.74,511.918,147.867,865.897,329.329,255.73,362.93,1.085,5933.5509999999995,333.583,15.015,70.827,1218.888,57.682,427.473,1070.261,233.87,511.548,148.155,851.885,341.919,254.941,357.878,1.085,5895.009999999999
2011-03-01,356.275,15.353,71.552,1229.144,57.673,429.516,1076.549,237.67,513.773,148.542,862.463,337.354,256.06,359.755,1.049,5952.728000000001,338.269,14.944,71.134,1222.581,57.673,427.921,1071.504,235.036,512.282,148.65,851.449,342.607,255.618,358.566,1.049,5909.282999999999
2011-04-01,349.526,15.195,71.561,1231.854,57.89,433.034,1073.416,232.667,514.108,149.445,857.295,344.484,256.305,358.076,1.031,5945.887,343.799,14.905,71.491,1229.252,57.89,434.209,1077.21,235.538,514.612,149.736,856.855,343.836,257.052,359.384,1.031,5946.799999999999
2011-05-01,338.132,14.855,71.783,1233.188,58.157,439.578,1074.414,229.185,515.755,150.391,853.118,348.433,258.557,357.322,1.008,5943.876,339.459,14.626,71.812,1234.382,58.157,438.671,1081.292,236.401,516.707,150.507,859.563,345.589,259.653,359.918,1.008,5967.744999999999
2011-06-01,335.747,15.25,72.234,1234.666,58.317,438.654,1077.415,229.336,517.532,151.033,851.801,355.049,259.83,358.213,1.006,5956.0830000000005,338.635,15.052,72.33,1238.017,58.317,438.638,1085.384,237.894,518.671,151.185,862.196,346.824,260.637,360.524,1.006,5985.31
2011-07-01,331.043,15.166,72.564,1237.99,58.397,438.163,1080.183,233.964,519.567,152.207,851.558,350.698,260.983,359.585,0.995,5963.063,338.889,15.206,72.741,1242.025,58.397,439.738,1089.545,239.419,520.573,152.147,863.491,347.828,261.656,361.163,0.995,6003.812999999999
2011-08-01,327.323,15.23,72.861,1242.787,58.479,442.131,1086.646,234.706,521.486,153.357,862.984,353.935,262.6,356.885,0.99,5992.4000000000015,337.732,15.164,73.106,1245.323,58.479,440.868,1093.004,240.33,522.286,153.037,870.902,349.804,262.865,358.437,0.99,6022.326999999999
2011-09-01,327.329,14.698,73.424,1247.789,58.678,447.72,1088.582,236.482,523.378,153.982,859.871,355.215,263.704,356.816,0.984,6008.652000000001,337.598,14.859,73.516,1249.528,58.678,444.577,1095.911,241.327,524.05,153.711,870.038,350.507,263.83,359.204,0.984,6038.318000000001
2011-10-01,340.104,14.633,73.872,1251.536,58.762,452.028,1094.204,238.585,524.927,154.537,864.179,355.86,265.521,357.773,0.969,6047.49,340.71,14.713,73.863,1252.425,58.762,446.994,1098.636,241.762,525.439,154.292,870.049,351.188,265.429,359.588,0.969,6054.819
2011-11-01,341.466,14.335,74.199,1257.421,58.978,457.486,1103.541,242.032,528.104,154.954,874.522,356.018,267.063,359.472,0.979,6090.570000000001,339.093,14.684,74.218,1255.021,58.978,449.485,1102.833,242.903,527.487,154.713,873.381,352.623,266.598,360.086,0.979,6073.082
2011-12-01,333.963,14.155,74.444,1257.701,59.075,443.216,1118.006,248.27,530.121,154.827,879.088,354.695,267.772,363.142,0.946,6099.420999999999,337.211,14.601,74.579,1256.676,59.075,447.859,1105.36,243.671,528.736,155.203,868.779,353.822,267.098,359.962,0.946,6073.5779999999995
2012-01-01,337.143,14.364,74.961,1254.854,59.292,435.753,1121.788,261.639,531.752,155.613,883.482,339.105,269.217,366.024,0.966,6105.953000000001,334.705,14.656,74.889,1255.416,59.292,443.177,1104.336,244.037,529.803,155.475,867.954,353.986,267.837,361.296,0.966,6067.824999999999
2012-02-01,341.527,14.617,75.287,1256.344,59.366,436.067,1114.545,259.133,531.122,155.561,880.531,342.073,269.316,366.923,0.97,6103.382,333.057,14.4,75.028,1253.973,59.366,440.569,1103.829,244.492,530.218,155.811,864.837,354.893,268.768,361.868,0.97,6062.079000000001
2012-03-01,346.072,14.483,75.603,1260.834,59.565,441.725,1109.585,248.079,532.75,155.849,880.488,351.522,270.057,364.823,0.937,6112.372,329.0,14.087,75.225,1254.337,59.565,441.096,1104.94,245.224,531.591,155.945,870.442,356.631,269.676,363.612,0.937,6072.308000000001
2012-04-01,333.544,14.32,75.621,1255.136,59.607,436.079,1101.561,243.862,530.834,156.073,859.947,355.957,269.492,362.095,0.919,6055.0470000000005,327.934,14.108,75.498,1252.973,59.607,437.403,1105.584,246.924,531.5,156.321,859.085,355.038,270.232,363.372,0.919,6056.4980000000005
2012-05-01,329.169,14.14,75.764,1251.375,59.734,437.22,1100.89,240.168,531.403,156.602,855.806,358.716,270.12,360.605,0.905,6042.617000000001,330.713,13.929,75.8,1252.869,59.734,435.536,1107.634,247.809,532.346,156.628,861.731,355.599,271.215,363.223,0.905,6065.670999999999
2012-06-01,329.561,13.844,75.788,1249.616,59.933,431.427,1098.974,238.164,531.622,156.786,849.32,365.029,271.044,361.344,0.879,6033.330999999998,332.609,13.629,75.922,1252.758,59.933,432.322,1107.033,247.173,533.126,157.012,860.21,356.924,271.95,363.771,0.879,6065.250999999999
2012-07-01,323.987,13.418,75.492,1250.489,60.05,428.839,1098.472,241.832,532.577,157.474,847.53,360.805,272.14,362.88,0.892,6026.877,331.023,13.42,75.707,1253.746,60.05,429.368,1106.678,247.428,533.331,157.344,858.948,357.932,272.746,364.441,0.892,6063.054
2012-08-01,320.506,13.457,75.797,1252.043,60.206,426.041,1101.184,242.681,532.865,158.026,846.823,362.053,273.341,363.687,0.881,6029.591,331.048,13.445,76.042,1254.868,60.206,424.635,1107.496,248.528,533.612,157.752,854.631,357.809,273.572,365.227,0.881,6059.752
2012-09-01,321.081,13.285,76.018,1251.87,60.536,422.295,1099.518,244.194,532.876,158.076,842.902,362.421,274.008,362.832,0.888,6022.8,331.964,13.45,76.127,1254.593,60.536,420.777,1108.065,249.25,533.817,157.942,853.818,357.63,274.26,365.167,0.888,6058.2840000000015
2012-10-01,330.475,13.47,76.313,1255.628,60.692,427.676,1106.538,246.672,534.785,158.564,847.842,364.254,275.233,364.436,0.877,6063.455,330.428,13.499,76.297,1255.292,60.692,420.754,1109.87,249.922,534.643,158.226,851.99,359.545,275.03,366.176,0.877,6063.241
2012-11-01,332.976,13.012,76.377,1260.514,61.012,429.146,1111.932,249.785,535.664,158.564,851.038,364.666,276.392,365.18,0.877,6087.135000000001,331.36,13.25,76.371,1257.629,61.012,421.134,1111.148,250.728,534.973,158.423,849.172,361.267,275.909,365.729,0.877,6068.981999999999
2012-12-01,330.955,12.802,76.346,1263.524,61.217,414.879,1127.731,255.956,537.339,158.06,861.691,363.989,277.292,370.013,0.883,6112.677,333.639,13.253,76.45,1263.318,61.217,420.406,1115.883,251.251,536.094,158.547,852.743,363.44,276.66,366.973,0.883,6090.757
2013-01-01,337.58,13.009,76.705,1262.168,61.531,415.206,1133.173,271.794,538.884,159.214,864.87,345.071,278.476,370.92,0.92,6129.521,334.793,13.328,76.628,1263.055,61.531,421.726,1115.81,253.412,536.649,158.977,849.626,360.47,277.036,366.232,0.92,6090.193
2013-02-01,344.505,13.446,77.192,1265.762,61.647,418.006,1126.943,267.643,537.416,158.819,862.437,352.129,278.553,371.288,0.931,6136.717,334.883,13.238,76.901,1263.612,61.647,423.145,1116.682,252.499,537.075,159.05,849.137,365.132,277.764,366.247,0.931,6097.942999999999
2013-03-01,350.239,13.246,77.529,1271.976,61.77,424.143,1122.042,255.136,538.606,159.419,860.129,359.433,278.805,366.228,0.906,6139.607,335.572,12.857,77.422,1265.196,61.77,426.136,1118.193,252.108,537.785,159.49,850.802,364.057,278.466,364.897,0.906,6105.656999999999
2013-04-01,347.64,13.258,77.893,1267.642,62.09,429.184,1114.49,248.337,538.343,159.58,851.807,367.461,278.689,364.316,0.879,6121.609,340.475,13.112,77.506,1265.218,62.09,428.072,1117.596,251.448,538.996,159.714,850.114,366.276,279.348,365.572,0.879,6116.416
2013-05-01,331.438,13.446,77.997,1263.539,62.407,429.424,1111.087,242.909,538.263,159.736,843.629,368.249,278.853,363.314,1.097,6085.388,333.048,13.271,78.058,1265.425,62.407,427.874,1117.918,250.642,539.407,159.718,849.659,364.775,279.995,365.892,1.097,6109.185999999998
2013-06-01,325.04,13.575,77.843,1260.563,62.654,423.753,1109.648,242.517,538.792,158.998,833.556,373.846,279.668,364.1,0.851,6065.4039999999995,329.567,13.358,78.015,1264.67,62.654,425.635,1118.479,251.766,540.719,159.283,844.76,366.003,280.668,366.714,0.851,6103.142
2013-07-01,322.041,13.305,78.343,1262.104,63.109,427.614,1111.782,247.597,541.261,159.728,834.877,368.36,280.861,366.119,0.88,6077.981,328.084,13.266,78.585,1265.253,63.109,427.117,1119.099,253.338,541.779,159.518,845.511,365.462,281.394,367.7,0.88,6110.094999999999
2013-08-01,316.619,13.212,78.717,1262.611,63.36,428.401,1114.505,247.221,541.44,159.843,847.038,370.864,281.886,366.382,0.866,6092.965,327.133,13.263,78.951,1265.263,63.36,427.67,1120.553,253.218,542.295,159.679,855.554,366.505,282.142,367.959,0.866,6124.411
2013-09-01,315.578,13.087,79.396,1263.692,63.575,430.495,1114.133,248.674,543.032,160.094,832.265,371.913,282.557,366.482,0.867,6085.840000000001,324.632,13.25,79.528,1265.536,63.575,427.887,1121.842,253.858,543.602,159.943,842.221,367.002,282.787,368.739,0.867,6115.269
2013-10-01,315.838,13.325,79.922,1266.339,64.089,438.179,1118.805,251.12,544.877,160.394,840.018,372.38,283.823,366.594,0.87,6116.573,317.38,13.31,79.879,1265.923,64.089,431.175,1122.228,254.359,544.478,160.103,843.519,367.615,283.635,368.215,0.87,6116.778
2013-11-01,320.316,13.292,80.209,1267.765,64.217,433.095,1123.773,253.765,545.094,160.022,853.72,372.127,284.859,368.488,0.866,6141.608000000001,319.364,13.429,80.166,1265.443,64.217,426.021,1123.638,254.693,544.545,160.043,852.022,368.742,284.426,368.973,0.866,6126.588000000001
2013-12-01,324.743,13.014,80.839,1265.806,64.469,420.46,1137.901,260.033,546.038,159.798,845.941,370.453,285.842,371.729,0.858,6147.923999999999,326.126,13.463,80.895,1264.83,64.469,425.048,1125.782,255.306,544.512,160.297,837.234,370.377,285.169,368.819,0.858,6123.185000000001
2014-01-01,328.644,12.622,81.55,1259.159,64.893,416.26,1143.45,275.854,546.931,160.543,851.169,351.312,287.403,373.059,0.898,6153.747,325.075,12.954,81.453,1260.412,64.893,422.717,1126.808,257.179,544.671,160.274,836.694,367.2,285.972,368.388,0.898,6115.588000000001
2014-02-01,330.919,13.153,82.514,1260.063,65.053,415.441,1136.768,271.284,545.327,160.343,847.991,357.187,287.55,373.45,0.912,6147.955,320.819,12.945,82.236,1258.013,65.053,420.823,1126.77,256.045,544.986,160.514,834.997,370.265,286.746,368.447,0.912,6109.571000000001
2014-03-01,336.293,13.059,83.031,1259.079,65.126,417.428,1125.142,258.678,544.35,160.247,839.829,366.875,287.039,369.986,0.891,6127.053,320.81,12.659,82.652,1253.16,65.126,417.684,1121.327,255.517,543.67,160.223,830.287,370.915,286.67,368.54,0.891,6090.130999999999
2014-04-01,328.27,13.112,83.37,1254.877,65.524,416.832,1118.012,251.942,543.999,160.019,832.31,373.453,286.531,367.307,0.882,6096.439999999999,323.217,13.013,83.317,1252.322,65.524,417.658,1121.506,255.087,544.799,160.093,830.59,372.002,287.123,368.557,0.882,6095.69
2014-05-01,320.81,13.305,83.677,1248.568,65.888,420.505,1115.41,247.888,544.048,160.084,824.908,377.607,286.373,366.835,0.886,6076.792,323.681,13.189,83.769,1250.533,65.888,420.037,1122.324,255.731,545.549,160.077,831.64,373.765,287.589,369.322,0.886,6103.980000000001
2014-06-01,322.237,13.68,84.11,1246.081,66.1,421.336,1115.243,247.006,544.867,159.765,820.277,381.593,287.456,364.575,0.887,6075.213,326.301,13.482,84.322,1249.639,66.1,422.466,1123.225,256.445,546.814,159.965,830.695,374.062,288.431,367.419,0.887,6110.252999999999
2014-07-01,321.728,13.533,84.297,1244.457,66.409,423.762,1116.812,250.268,545.486,160.32,818.632,378.457,288.518,366.927,0.889,6080.495,328.494,13.469,84.527,1247.39,66.409,423.043,1123.751,256.048,545.978,160.095,828.907,375.55,289.024,368.549,0.889,6112.123000000001
2014-08-01,318.171,13.141,84.815,1242.74,66.565,424.251,1117.146,250.006,545.327,160.132,815.936,380.682,289.272,367.782,0.904,6076.869999999999,328.593,13.237,85.008,1245.747,66.565,424.188,1123.364,256.161,546.294,160.078,824.938,376.135,289.564,369.462,0.904,6110.238000000001
2014-09-01,322.034,13.197,85.218,1244.166,66.707,429.986,1116.314,250.566,546.741,158.282,818.792,384.053,292.39,367.708,0.882,6097.036,329.446,13.344,85.34,1244.819,66.707,426.303,1122.859,255.8,546.972,158.131,828.039,378.973,292.61,369.823,0.882,6120.048
2014-10-01,329.194,13.406,85.992,1244.317,66.984,436.477,1119.704,253.145,547.129,157.893,824.822,385.208,293.249,370.502,0.881,6128.903,330.842,13.38,85.925,1244.023,66.984,429.348,1123.06,256.32,546.49,157.672,827.746,380.347,293.104,372.039,0.881,6128.161
2014-11-01,330.311,13.312,86.598,1244.399,67.602,437.886,1122.772,255.822,547.674,158.013,831.187,383.885,293.904,370.989,0.892,6145.245999999999,330.656,13.384,86.509,1243.225,67.602,431.83,1123.606,256.634,547.249,158.188,829.938,380.454,293.552,371.343,0.892,6135.061999999999
2014-12-01,330.455,12.751,87.099,1243.177,67.827,429.975,1136.598,262.337,550.245,157.711,838.941,381.054,294.965,374.987,0.904,6169.026000000001,330.285,13.18,87.115,1242.594,67.827,433.677,1124.736,257.526,548.498,158.2,830.368,381.428,294.288,372.131,0.904,6142.7570000000005
2015-01-01,333.503,12.708,87.672,1242.089,67.938,430.948,1142.679,280.137,551.927,158.605,847.946,365.994,296.155,377.992,0.887,6197.179999999999,330.06,13.009,87.598,1243.475,67.938,438.191,1127.101,261.292,549.971,158.366,834.829,382.692,294.779,373.414,0.887,6163.601999999999
2015-02-01,341.811,13.335,88.116,1248.481,68.162,435.289,1139.672,277.039,551.196,158.501,849.969,368.284,296.218,378.624,0.888,6215.584999999999,331.451,13.112,87.906,1246.506,68.162,440.834,1130.129,261.765,550.785,158.618,837.13,381.817,295.388,373.67,0.888,6178.161
2015-03-01,343.811,13.635,88.289,1253.462,68.182,446.448,1136.378,263.642,551.952,158.835,848.721,381.417,296.845,376.254,0.891,6228.762,329.096,13.225,88.109,1246.361,68.182,445.778,1131.961,260.356,551.148,158.681,838.138,384.82,296.358,374.604,0.891,6187.708
2015-04-01,336.126,13.343,88.18,1254.039,68.404,451.82,1133.6,259.682,553.122,158.73,844.083,390.056,296.943,375.334,0.863,6224.325,331.322,13.275,88.003,1251.855,68.404,452.834,1137.088,262.895,554.053,158.745,842.657,388.362,297.457,376.615,0.863,6224.428000000001
2015-05-01,322.728,13.407,87.907,1252.417,68.97,456.479,1131.788,254.488,553.471,158.978,832.715,392.499,297.137,373.839,0.832,6197.655,326.797,13.384,88.012,1254.825,68.97,457.108,1139.119,262.422,555.219,158.973,839.959,388.248,298.393,376.248,0.832,6228.508999999999
2015-06-01,320.13,13.297,87.55,1253.156,69.072,463.08,1135.349,253.791,554.43,159.611,836.936,395.793,298.48,374.545,0.828,6216.048,323.773,13.147,87.75,1255.504,69.072,463.538,1142.205,263.393,556.361,159.724,846.527,388.537,299.403,377.701,0.828,6247.463000000002
2015-07-01,317.468,12.846,87.509,1253.682,69.599,464.173,1137.609,258.093,557.265,160.35,835.419,392.391,300.418,375.754,0.831,6223.406999999999,323.818,12.763,87.69,1256.414,69.599,463.277,1143.973,264.057,557.715,160.11,845.094,389.426,300.913,377.465,0.831,6253.145
2015-08-01,313.058,12.834,87.566,1253.856,69.735,460.376,1139.796,258.559,558.378,160.261,847.112,395.325,301.41,375.371,0.803,6234.44,322.876,12.936,87.704,1256.903,69.735,459.991,1145.316,264.969,559.211,160.246,856.37,390.503,301.729,377.144,0.803,6266.436
2015-09-01,314.835,12.902,87.366,1256.996,69.847,462.628,1140.106,259.965,560.674,160.783,837.456,396.124,302.189,374.885,0.803,6237.559000000001,322.069,13.019,87.486,1258.289,69.847,458.796,1146.76,265.466,560.868,160.692,846.382,390.906,302.427,376.855,0.803,6260.664999999999
2015-10-01,314.257,13.061,87.151,1257.388,69.969,460.845,1144.82,262.275,562.54,161.202,853.16,396.49,303.238,375.603,0.834,6262.8330000000005,316.511,13.027,87.073,1257.378,69.969,454.517,1148.164,265.487,561.959,161.11,856.281,391.495,303.192,377.023,0.834,6264.0199999999995
2015-11-01,316.584,13.006,86.466,1256.44,70.11,453.568,1148.598,263.825,561.927,161.416,857.26,395.425,304.501,376.829,0.805,6266.76,315.778,13.066,86.353,1255.249,70.11,446.803,1149.081,264.488,561.256,161.585,855.856,391.981,304.155,376.987,0.805,6253.552999999999
2015-12-01,316.546,12.438,85.735,1252.108,70.209,428.837,1160.322,269.722,563.011,161.516,849.031,391.303,305.565,379.4,0.783,6246.525999999999,316.698,12.847,85.742,1252.089,70.209,432.641,1149.552,264.777,561.304,162.039,841.001,392.115,304.939,376.493,0.783,6223.229000000001
2016-01-01,318.691,12.57,85.172,1244.79,70.357,413.642,1164.55,283.398,563.187,162.966,852.109,375.166,307.327,382.459,0.792,6237.176000000001,315.458,12.805,85.115,1246.637,70.357,421.576,1150.686,264.477,561.594,162.779,839.988,392.256,306.031,378.063,0.792,6208.614000000001